Home > Weather > Cumberland > Past weeks

Flag for U.S.A. Weather for the Past 2 Weeks in Cumberland, Maryland, U.S.A.

Now
34 °F

Sunny.


Feels Like: 27 °F
Forecast: 23 / 45 °F
Wind: 9 mph from South

Location: Eastern West Virginia Regional Airport

Current Time: Feb 6, 2016 at 11:01:24 AM

Latest Report: Feb 6, 2016 at 9:53 AM


Visibility: 10 mi

Pressure: 30.42 "Hg

Humidity: 56%

Dew point: 20 °F

Location of CumberlandLocation

Historic Weather in Cumberland — Graph

°F

Cumberland Temperature Yesterday

Maximum temperature yesterday: 39 °F (at 12:53 PM)
Minimum temperature yesterday: 25 °F (at 9:53 PM)
Average temperature yesterday: 34 °F

High & Low Weather Summary for the Past Weeks

 TemperatureHumidityPressure
High58 °F (Jan 31, 1:53 PM)100% (Feb 2, 8:53 AM)30.43 "Hg (Feb 2, 8:53 AM)
Low2 °F (Jan 25, 5:53 AM)34% (Jan 31, 12:53 PM)29.56 "Hg (Jan 29, 4:53 AM)
Average32 °F69%30.03 "Hg
* Reported Jan 22 9:53 AM — Feb 6 9:53 AM, Cumberland, Weather by CustomWeather, © 2016

Note: Actual official high and low records may vary slightly from our data, if they occured in-between our weather recording intervals... More about our weather records

Advertising

Cumberland Weather History for the Previous 24 Hours

 ConditionsComfort  
Time TempWeatherWind HumidityBarometerVisibility
9:53 AM
Sat, Feb 6
34 °FSunny.9 mph56%30.42 "Hg10 mi
8:53 AM29 °FSunny.5 mph69%30.42 "Hg10 mi
7:53 AM24 °FSunny.3 mph77%30.43 "Hg10 mi
6:53 AM24 °FClear.3 mph71%30.42 "Hg10 mi
5:53 AM22 °FClear.3 mph78%30.41 "Hg10 mi
4:53 AM23 °FClear.5 mph78%30.41 "Hg10 mi
3:53 AM22 °FClear.No wind78%30.40 "Hg10 mi
2:53 AM21 °FClear.3 mph81%30.40 "Hg8 mi
1:53 AM23 °FClear.No wind74%30.40 "Hg10 mi
12:53 AM23 °FClear.6 mph74%30.41 "Hg10 mi
11:53 PM
Fri, Feb 5
27 °FClear.No wind63%30.40 "Hg10 mi
10:53 PM25 °FClear.No wind69%30.40 "Hg10 mi
9:53 PM25 °FClear.No wind69%30.39 "Hg10 mi
8:53 PM27 °FClear.No wind63%30.39 "Hg10 mi
7:53 PM32 °FClear.6 mph50%30.38 "Hg10 mi
6:53 PM32 °FClear.No wind50%30.38 "Hg10 mi
5:53 PM35 °FClear.No wind42%30.36 "Hg10 mi
4:53 PM37 °FSunny.8 mph39%30.34 "Hg10 mi
3:53 PM38 °FSunny.13 mph41%30.32 "Hg10 mi
2:53 PM38 °FSunny.15 mph41%30.31 "Hg10 mi
1:53 PM38 °FSunny.17 mph46%30.30 "Hg10 mi
12:53 PM39 °FPassing clouds.15 mph43%30.31 "Hg10 mi
11:53 AM37 °FPartly sunny.21 mph46%30.32 "Hg10 mi
Weather by CustomWeather, © 2016

See weather overviewHow to use our weather pages